Location: Newark
(44.2764°N, 5.2753°E)
Time: 01:37:02
(UTC+00:00)

ISS - Pass Details

Date: 21 January 2020
Orbit: 415 x 422 km, 51.6° (Epoch: 27 February)

Event Time Altitude Azimuth Distance (km) Brightness Sun altitude
Rises 18:01:58 0° 219° (SW) 2,367 0.9 -15.8°
Reaches altitude 10° 18:04:08 10° 212° (SSW) 1,504 -0.3 -16.2°
Maximum altitude 18:07:20 40° 141° (SE) 639 -3.1 -16.7°
Enters shadow 18:07:47 37° 118° (ESE) 669 -3.1 -16.8°
